Location: Bacharowice
(49.9333°N, 19.5833°E)
Time: 23:52:46
(UTC+00:00)

Cosmos 1238 Rocket - Pass Details

Date: 11 May 2021
Orbit: 374 x 1021 km, 82.9° (Epoch: 21 June)

Event Time Altitude Azimuth Distance (km) Brightness Sun altitude
Rises 20:34:26 0° 353° (N) 3,733 8.3 -16.7°
Reaches altitude 10° 20:37:15 10° 360° (N) 2,730 7.3 -16.9°
Maximum altitude 20:43:14 43° 71° (ENE) 1,229 4.4 -17.4°
Enters shadow 20:45:57 26° 126° (SE) 1,600 4.6 -17.6°
